Almo, Kentucky
Current Conditions -  °F | °C
As of 12:15 AM on Wednesday 22 Oct 2014 (Local Time) from KCEY Reporting Station
Clear Clear  
Wind Chill: 46°   Ceiling: Unl
Heat Index: 48°   Visibility: 3mi
Dew Point: 41°   Wind: 6mph
Humidity: 76%   Direction: 60°ENE
Pressure: 30.16"   Gusts: NA
Location:  36.69°N, 88.28°W
Report Text: KCEY 220515Z AUTO 06005KT 3SM CLR 09/05 A3016 RMK AO1
Loading
Personal Weather Stations






























Interactive Weather Map
Tropical Storm Tracking
New forecast layout! Learn more

10-Day Weather Forecast

Advertisements
Track Severe Weather on mobile